Date String (YYYY-MM-DD hh:mm:ss) UTC,Instrument flags,Ambient pressure (hPa),Sample flow (lpm),Bypass flow (lpm),Sample temperature (°C),Ambient temperature (°C),ASC tube jacket temperature (°C),LED temperature (°C),Box temperature (°C),Sample RH (%),Span deviation,Mass concentration (μg/m³),Mass concentration (μg/m³),Mass concentration (μg/m³)
DateTimeUTC,F1_M11,P_M11,Q1_M11,Q2_M11,T1_M11,T2_M11,T3_M11,T4_M11,T5_M11,U1_M11,ZSPAN_M11,X2_M11,X0_M11,X1_M11
2022-09-19 02:00:00,,0825.0,5.00,0.00,30.0,27.6,00.0,38.5,31.9,18.7,0000.0,0005.12,0013.13,0004.40
2022-09-19 02:01:00,,0825.0,5.00,0.00,30.0,26.8,00.0,38.5,31.8,18.6,0000.0,0005.07,0012.61,0004.39
2022-09-19 02:02:00,,0825.0,4.98,0.00,29.9,26.9,00.0,38.5,31.6,18.6,0000.0,0005.04,0012.73,0004.38
2022-09-19 02:03:00,,0825.0,5.00,0.00,29.8,27.1,00.0,38.5,31.5,18.8,0000.0,0005.04,0012.66,0004.37
2022-09-19 02:04:00,,0825.0,5.00,0.00,29.8,27.5,00.0,38.5,31.5,18.8,0000.0,0005.06,0012.39,0004.36
2022-09-19 02:05:00,,0825.0,4.99,0.00,29.8,27.8,00.0,38.5,31.6,18.6,0000.0,0005.05,0012.23,0004.36
2022-09-19 02:06:00,,0825.0,5.00,0.00,29.8,28.1,00.0,38.5,31.6,18.5,0000.0,0005.01,0012.52,0004.35
2022-09-19 02:07:00,,0825.0,5.00,0.00,29.8,28.2,00.0,38.5,31.7,18.6,0000.0,0005.00,0013.48,0004.35
2022-09-19 02:08:00,,0825.1,5.00,0.00,29.8,28.4,00.0,38.5,31.7,18.8,0000.0,0005.00,0013.84,0004.35
2022-09-19 02:09:00,,0825.1,5.00,0.00,29.8,28.5,00.0,38.5,31.7,18.9,0000.0,0004.99,0013.87,0004.34
2022-09-19 02:10:00,,0825.1,5.00,0.00,29.9,28.7,00.0,38.5,31.8,18.7,0000.0,0005.02,0013.37,0004.34
2022-09-19 02:11:00,,0825.1,4.99,0.00,29.9,28.8,00.0,38.5,31.9,18.5,0000.0,0005.08,0013.88,0004.34
2022-09-19 02:12:00,,0825.1,4.99,0.00,30.0,28.9,00.0,38.6,31.9,18.5,0000.0,0005.11,0014.63,0004.35
2022-09-19 02:13:00,,0825.2,5.00,0.00,30.0,28.9,00.0,38.6,31.9,18.4,0000.0,0005.12,0014.17,0004.35
2022-09-19 02:14:00,,0825.2,5.00,0.00,30.0,29.0,00.0,38.6,32.0,18.4,0000.0,0005.11,0014.75,0004.34
2022-09-19 02:15:00,,0825.2,5.01,0.00,30.1,28.4,00.0,38.6,32.0,18.2,0000.0,0005.10,0015.34,0004.34
2022-09-19 02:16:00,,0825.2,5.00,0.00,30.0,26.8,00.0,38.6,31.8,18.1,0000.0,0005.16,0015.58,0004.34
2022-09-19 02:17:00,,0825.2,5.00,0.00,30.0,26.2,00.0,38.6,31.7,18.0,0000.0,0005.16,0015.21,0004.34
2022-09-19 02:18:00,,0825.2,5.00,0.00,29.9,26.3,00.0,38.5,31.6,18.1,0000.0,0005.17,0014.87,0004.34
2022-09-19 02:19:00,,0825.2,4.99,0.00,29.8,26.6,00.0,38.5,31.4,18.4,0000.0,0005.18,0013.64,0004.33
2022-09-19 02:20:00,,0825.3,5.00,0.00,29.7,27.0,00.0,38.5,31.4,18.5,0000.0,0005.18,0013.70,0004.32
2022-09-19 02:21:00,,0825.3,5.01,0.00,29.7,27.4,00.0,38.4,31.4,18.7,0000.0,0005.14,0013.31,0004.29
2022-09-19 02:22:00,,0825.3,4.99,0.00,29.7,27.6,00.0,38.4,31.5,18.7,0000.0,0005.07,0013.60,0004.26
2022-09-19 02:23:00,,0825.3,5.01,0.00,29.7,27.8,00.0,38.4,31.5,18.6,0000.0,0005.04,0013.36,0004.23
2022-09-19 02:24:00,,0825.3,5.00,0.00,29.7,28.0,00.0,38.4,31.5,18.8,0000.0,0005.00,0012.98,0004.20
2022-09-19 02:25:00,,0825.4,5.00,0.00,29.7,28.2,00.0,38.4,31.6,18.6,0000.0,0005.02,0012.63,0004.18
2022-09-19 02:26:00,,0825.4,5.00,0.00,29.7,28.3,00.0,38.4,31.6,18.6,0000.0,0004.98,0011.94,0004.15
2022-09-19 02:27:00,,0825.3,5.01,0.00,29.8,28.5,00.0,38.4,31.7,18.5,0000.0,0004.89,0011.94,0004.12
2022-09-19 02:28:00,,0825.3,5.00,0.00,29.8,28.6,00.0,38.5,31.7,18.4,0000.0,0004.85,0012.13,0004.09
2022-09-19 02:29:00,,0825.4,4.99,0.00,29.8,28.7,00.0,38.5,31.7,18.3,0000.0,0004.81,0012.35,0004.05
2022-09-19 02:30:00,,0825.3,5.01,0.00,29.9,28.7,00.0,38.5,31.7,18.3,0000.0,0004.77,0012.34,0004.03
2022-09-19 02:31:00,,0825.4,4.99,0.00,29.9,28.8,00.0,38.5,31.8,18.2,0000.0,0004.71,0011.98,0004.02
2022-09-19 02:32:00,,0825.4,5.00,0.00,29.9,28.9,00.0,38.5,31.9,18.1,0000.0,0004.69,0011.96,0004.02
2022-09-19 02:33:00,,0825.4,4.99,0.00,30.0,29.0,00.0,38.6,31.9,18.1,0000.0,0004.71,0012.51,0004.04
2022-09-19 02:34:00,,0825.4,5.01,0.00,30.0,29.0,00.0,38.6,32.0,18.0,0000.0,0004.71,0012.33,0004.04
2022-09-19 02:35:00,,0825.4,4.99,0.00,30.0,29.0,00.0,38.6,32.0,18.1,0000.0,0004.73,0012.34,0004.05
2022-09-19 02:36:00,,0825.4,5.01,0.00,30.1,28.0,00.0,38.6,32.0,18.1,0000.0,0004.69,0012.86,0004.05
2022-09-19 02:37:00,,0825.4,5.00,0.00,30.0,26.9,00.0,38.6,31.9,18.0,0000.0,0004.70,0014.04,0004.06
2022-09-19 02:38:00,,0825.4,5.00,0.00,30.0,26.9,00.0,38.6,31.8,18.1,0000.0,0004.70,0014.15,0004.07
2022-09-19 02:39:00,,0825.4,5.00,0.00,29.9,27.1,00.0,38.6,31.6,18.1,0000.0,0004.69,0014.01,0004.09
2022-09-19 02:40:00,,0825.4,4.99,0.00,29.9,27.4,00.0,38.5,31.6,18.2,0000.0,0004.72,0013.48,0004.10
2022-09-19 02:41:00,,0825.4,5.01,0.00,29.9,27.8,00.0,38.5,31.6,18.2,0000.0,0004.71,0013.64,0004.10
2022-09-19 02:42:00,,0825.4,4.99,0.00,29.9,28.0,00.0,38.5,31.7,18.2,0000.0,0004.74,0014.11,0004.11
2022-09-19 02:43:00,,0825.5,5.00,0.00,29.9,28.2,00.0,38.5,31.7,18.2,0000.0,0004.74,0013.99,0004.11
2022-09-19 02:44:00,,0825.5,4.99,0.00,29.9,28.3,00.0,38.5,31.7,18.2,0000.0,0004.73,0013.44,0004.11
2022-09-19 02:45:00,,0825.5,5.01,0.00,29.9,28.4,00.0,38.6,31.7,18.3,0000.0,0004.70,0012.85,0004.11
2022-09-19 02:46:00,,0825.4,5.00,0.00,29.9,28.5,00.0,38.6,31.8,18.3,0000.0,0004.71,0012.62,0004.11
2022-09-19 02:47:00,,0825.5,5.01,0.00,29.9,28.7,00.0,38.6,31.8,18.3,0000.0,0004.70,0012.70,0004.11
2022-09-19 02:48:00,,0825.6,5.00,0.00,30.0,28.8,00.0,38.6,31.9,18.2,0000.0,0004.70,0011.79,0004.11
2022-09-19 02:49:00,,0825.5,4.99,0.00,30.0,28.9,00.0,38.6,31.9,18.2,0000.0,0004.72,0011.70,0004.11
2022-09-19 02:50:00,,0825.5,4.99,0.00,30.0,28.9,00.0,38.7,32.0,18.1,0000.0,0004.72,0011.43,0004.10
2022-09-19 02:51:00,,0825.5,5.00,0.00,30.1,29.0,00.0,38.7,32.0,18.1,0000.0,0004.70,0011.34,0004.10
2022-09-19 02:52:00,,0825.5,4.99,0.00,30.1,29.1,00.0,38.7,32.0,18.1,0000.0,0004.70,0011.06,0004.12
2022-09-19 02:53:00,,0825.5,5.02,0.00,30.1,28.9,00.0,38.7,32.1,18.1,0000.0,0004.76,0010.74,0004.16
2022-09-19 02:54:00,,0825.5,5.00,0.00,30.1,27.5,00.0,38.7,32.0,18.1,0000.0,0004.83,0011.29,0004.19
2022-09-19 02:55:00,,0825.5,5.00,0.00,30.1,26.9,00.0,38.7,31.9,18.1,0000.0,0004.88,0011.51,0004.23
2022-09-19 02:56:00,,0825.6,5.00,0.00,30.0,27.0,00.0,38.6,31.7,18.1,0000.0,0004.94,0011.34,0004.26
2022-09-19 02:57:00,,0825.6,4.99,0.00,29.9,27.3,00.0,38.6,31.6,18.2,0000.0,0004.97,0011.42,0004.30
2022-09-19 02:58:00,,0825.6,4.99,0.00,29.9,27.6,00.0,38.6,31.7,18.3,0000.0,0005.00,0011.46,0004.33
2022-09-19 02:59:00,,0825.6,5.00,0.00,29.9,27.9,00.0,38.6,31.7,18.3,0000.0,0005.04,0011.01,0004.37
